User: anonymous   Login
Location: Unspecified
(0.0000°N, 0.0000°E)
Time: 14:16:49
(UTC+00:00)
Language:

SPOT 5 - Orbit

View from above orbital plane
View from above orbital plane
View from above satellite
View from above satellite

Ground track
Ground track

The orbit data is extracted from the following two-line orbital elements,

1 27421U 02021A   18115.05822644  .00000051  00000-0  22328-4 0  9995
2 27421  98.3626 182.9711 0136572  93.1510 268.5328 14.51926377830925
Epoch (UTC): 25 April 2018 01:23:50
Eccentricity: 0.0136572
inclination: 98.3626°
perigee height: 622 km
apogee height: 816 km
right ascension of ascending node: 182.9711°
argument of perigee: 93.1510°
revolutions per day: 14.51926377
mean anomaly at epoch: 268.5328°
orbit number at epoch: 83092

The dashed part of the orbit path shows where the satellite is in the earth's shadow,  

DLR